CAPE
0 0 0 0 0 0 0 0 0 0 0 0 0 0 0 412 543 157 66 34 27 32 80 121 82 142 77 0 0 37 111 206 180 113 149 464 481 489 524 665 789 651 841 893
0 0 0 0 0 0 0 0 0 0 0 0 0 0 146 175 556 473 119 49 46 46 69 64 89 106 84 5 4 52 137 223 280 189 358 574 626 652 898 839 788 888 1032 839
0 0 0 0 0 0 0 0 0 0 0 0 18 8 172 294 605 724 471 106 41 28 49 46 64 62 80 56 23 12 110 252 421 319 318 453 511 548 643 708 719 890 1084 364
0 0 0 0 0 0 0 0 0 0 0 0 0 0 1 339 365 673 703 374 151 70 24 38 49 13 47 82 44 103 113 196 521 455 333 384 426 539 638 681 777 983 1188 887
0 0 0 0 0 0 0 0 0 0 0 0 0 0 0 49 444 455 663 598 245 149 54 22 20 11 5 60 87 125 113 173 402 533 434 478 525 576 736 797 941 983 1374 1031
0 0 0 0 0 0 0 0 0 0 0 0 0 0 0 0 0 0 344 621 440 240 114 75 30 55 23 55 68 93 64 75 302 388 427 421 449 492 484 572 798 970 1268 905
0 0 0 0 0 0 0 0 0 0 0 0 0 0 0 0 0 0 0 37 606 395 225 102 80 50 108 107 106 130 92 84 201 264 408 383 467 511 426 489 635 906 1048 1292
0 0 0 0 0 0 0 0 0 0 0 0 0 0 0 0 0 0 8 1 312 563 385 261 140 127 184 175 157 154 157 150 170 273 331 456 530 561 530 612 594 709 815 1040
0 0 0 0 0 0 0 0 0 0 0 0 0 0 0 0 0 0 96 108 190 512 547 413 263 189 223 244 221 190 208 205 191 224 338 376 532 496 491 566 619 586 715 905
0 0 0 0 0 0 0 0 0 0 0 0 0 0 0 0 0 0 70 96 46 243 613 590 404 195 205 271 282 225 242 237 216 217 273 287 245 509 511 544 535 626 670 886
0 0 0 0 0 0 0 0 0 0 0 0 0 0 0 0 0 0 0 1 158 390 284 538 516 318 203 182 194 216 258 296 296 293 295 227 145 213 386 357 460 728 734 863
0 0 0 0 0 0 0 0 0 0 0 0 0 0 0 0 0 0 0 0 0 4 45 292 425 233 199 152 153 152 229 293 276 345 360 288 181 174 233 185 223 486 766 824
0 0 0 0 0 0 0 0 0 0 0 0 0 0 0 0 0 0 0 0 0 0 0 0 0 0 100 198 140 64 123 248 243 250 219 253 313 306 245 227 176 157 398 808
0 0 0 0 0 0 0 0 0 0 0 0 0 0 0 0 0 0 0 0 0 0 0 0 0 0 0 0 39 127 131 103 200 236 145 165 130 215 329 507 366 206 135 197
0 0 0 0 0 0 0 0 0 0 0 0 0 0 0 0 0 0 0 0 0 0 0 0 0 0 0 0 0 1 23 38 155 274 314 309 347 195 110 203 470 430 320 195
0 0 0 0 0 0 0 0 0 0 0 0 0 0 0 0 0 0 0 0 0 0 0 0 0 0 0 0 0 0 0 5 50 69 358 447 496 500 415 252 161 379 402 329
0 0 0 0 0 0 0 0 0 0 0 0 0 0 0 0 0 0 0 0 0 0 0 0 0 0 0 0 0 0 0 3 84 133 81 312 495 578 481 423 361 322 313 368
0 0 0 0 0 0 0 0 0 0 0 0 0 0 0 0 0 0 0 0 0 0 0 0 0 0 0 0 0 0 0 0 0 245 105 205 422 524 655 603 497 403 356 311
0 0 0 0 0 0 0 0 0 0 0 0 0 0 0 0 0 0 0 0 0 0 0 0 0 0 0 0 0 0 0 0 0 6 274 454 442 493 543 692 744 692 530 440
0 0 0 0 0 0 0 0 0 0 0 0 0 0 0 0 0 0 0 0 0 0 0 0 0 0 0 0 0 0 0 0 0 0 3 84 371 243 903 715 713 782 864 604
0 0 0 0 0 0 0 0 0 0 0 0 0 0 0 0 0 0 0 0 0 0 0 0 0 0 0 0 0 0 0 0 0 0 4 0 0 155 139 362 1131 904 914 896
0 0 0 0 0 0 0 0 0 0 0 0 0 0 0 0 0 0 0 0 0 0 0 0 0 0 0 0 0 0 0 0 0 0 0 0 0 2 118 143 111 978 1035 980
0 0 0 0 0 0 0 0 0 0 0 0 0 0 0 0 0 0 0 0 0 1 0 1 0 0 0 0 0 0 0 0 0 0 0 0 0 0 2 80 152 183 577 1093
0 0 0 0 0 0 0 0 0 0 0 0 0 0 0 1 1 0 0 2 3 4 4 3 5 6 1 0 0 0 0 2 0 0 0 0 0 0 0 0 81 188 275 564
0 0 0 0 0 0 0 0 0 0 0 0 0 0 0 4 1 5 5 3 1 2 1 1 1 5 9 7 0 0 0 0 4 0 0 1 0 0 1 0 0 175 478 497
0 0 0 0 0 0 0 0 0 0 0 0 0 0 1 6 3 2 8 2 0 0 2 6 6 6 6 6 6 0 0 4 8 6 0 3 1 0 0 1 0 0 0 20
CIN
-0 -0 -0 -0 -0 -0 -0 -0 -0 -0 -0 -0 -0 -0 -0 -60 -36 -84 -104 -116 -76 -66 -47 -44 -85 -61 -77 -0 -0 -109 -96 -79 -85 -128 -103 -34 -28 -35 -39 -33 -28 -22 -27 -30
-0 -0 -0 -0 -0 -0 -0 -0 -0 -0 -0 -0 -0 -0 -101 -138 -77 -47 -80 -117 -95 -46 -35 -56 -57 -51 -68 -59 -27 -97 -94 -81 -66 -77 -56 -38 -37 -36 -30 -29 -32 -19 -24 -33
-0 -0 -0 -0 -0 -0 -0 -0 -0 -0 -0 -0 -41 -28 -79 -130 -77 -48 -32 -80 -101 -99 -79 -64 -45 -60 -64 -76 -94 -100 -113 -93 -69 -72 -69 -55 -49 -48 -39 -33 -28 -20 -22 -47
-0 -0 -0 -0 -0 -0 -0 -0 -0 -0 -0 -0 -0 -0 -22 -111 -126 -66 -34 -69 -106 -123 -83 -52 -46 -55 -73 -68 -82 -99 -104 -103 -77 -78 -65 -51 -30 -20 -25 -26 -27 -17 -21 -27
-0 -0 -0 -0 -0 -0 -0 -0 -0 -0 -0 -0 -0 -0 -0 -212 -71 -62 -37 -37 -79 -100 -98 -85 -84 -64 -20 -71 -83 -106 -118 -111 -94 -82 -72 -50 -28 -21 -21 -29 -28 -21 -20 -12
-0 -0 -0 -0 -0 -0 -0 -0 -0 -0 -0 -0 -0 -0 -0 -0 -0 -0 -104 -54 -51 -54 -100 -106 -87 -97 -79 -76 -82 -118 -134 -114 -109 -95 -87 -65 -40 -29 -22 -28 -26 -23 -14 -12
-0 -0 -0 -0 -0 -0 -0 -0 -0 -0 -0 -0 -0 -0 -0 -0 -0 -0 -0 -62 -98 -98 -93 -122 -144 -92 -66 -69 -93 -94 -137 -130 -123 -103 -94 -90 -54 -37 -32 -32 -29 -24 -20 -14
-0 -0 -0 -0 -0 -0 -0 -0 -0 -0 -0 -0 -0 -0 -0 -0 -0 -0 -322 -105 -181 -111 -108 -117 -153 -119 -74 -63 -86 -87 -104 -118 -141 -124 -110 -95 -70 -33 -40 -32 -27 -25 -24 -17
-0 -0 -0 -0 -0 -0 -0 -0 -0 -0 -0 -0 -0 -0 -0 -0 -0 -0 -298 -294 -252 -152 -115 -110 -128 -142 -113 -88 -95 -84 -106 -115 -140 -134 -119 -119 -91 -70 -54 -46 -37 -31 -35 -26
-0 -0 -0 -0 -0 -0 -0 -0 -0 -0 -0 -0 -0 -0 -0 -0 -0 -0 -340 -332 -362 -254 -124 -94 -112 -145 -147 -117 -113 -103 -94 -100 -114 -143 -131 -123 -113 -93 -76 -57 -46 -36 -35 -40
-0 -0 -0 -0 -0 -0 -0 -0 -0 -0 -0 -0 -0 -0 -0 -0 -0 -0 -0 -0 -296 -201 -188 -93 -78 -133 -148 -130 -122 -124 -113 -114 -129 -158 -148 -135 -125 -119 -99 -87 -71 -41 -39 -41
-0 -0 -0 -0 -0 -0 -0 -0 -0 -0 -0 -0 -0 -0 -0 -0 -0 -0 -0 -0 -0 -20 -370 -167 -105 -129 -120 -130 -122 -119 -105 -119 -142 -152 -164 -147 -121 -113 -113 -123 -112 -69 -45 -45
-0 -0 -0 -0 -0 -0 -0 -0 -0 -0 -0 -0 -0 -0 -0 -0 -0 -0 -0 -0 -0 -0 -0 -0 -0 -0 -157 -89 -97 -118 -129 -106 -139 -164 -188 -167 -130 -114 -110 -123 -116 -117 -75 -44
-0 -0 -0 -0 -0 -0 -0 -0 -0 -0 -0 -0 -0 -0 -0 -0 -0 -0 -0 -0 -0 -0 -0 -0 -0 -0 -0 -0 -263 -139 -139 -115 -105 -137 -195 -172 -178 -155 -113 -109 -116 -114 -108 -86
-0 -0 -0 -0 -0 -0 -0 -0 -0 -0 -0 -0 -0 -0 -0 -0 -0 -0 -0 -0 -0 -0 -0 -0 -0 -0 -0 -0 -0 -0 -256 -248 -137 -108 -124 -153 -170 -188 -185 -140 -114 -121 -116 -109
-0 -0 -0 -0 -0 -0 -0 -0 -0 -0 -0 -0 -0 -0 -0 -0 -0 -0 -0 -0 -0 -0 -0 -0 -0 -0 -0 -0 -0 -0 -0 -163 -242 -249 -168 -133 -117 -137 -159 -171 -160 -132 -114 -114
-0 -0 -0 -0 -0 -0 -0 -0 -0 -0 -0 -0 -0 -0 -0 -0 -0 -0 -0 -0 -0 -0 -0 -0 -0 -0 -0 -0 -0 -0 -0 -0 -203 -196 -303 -172 -128 -124 -145 -156 -157 -151 -146 -131
-0 -0 -0 -0 -0 -0 -0 -0 -0 -0 -0 -0 -0 -0 -0 -0 -0 -0 -0 -0 -0 -0 -0 -0 -0 -0 -0 -0 -0 -0 -0 -0 -0 -119 -233 -199 -131 -97 -77 -89 -137 -181 -167 -154
-0 -0 -0 -0 -0 -0 -0 -0 -0 -0 -0 -0 -0 -0 -0 -0 -0 -0 -0 -0 -0 -0 -0 -0 -0 -0 -0 -0 -0 -0 -0 -0 -0 -33 -59 -80 -83 -50 -58 -57 -90 -132 -134 -155
-0 -0 -0 -0 -0 -0 -0 -0 -0 -0 -0 -0 -0 -0 -0 -0 -0 -0 -0 -0 -0 -0 -0 -0 -0 -0 -0 -0 -0 -0 -0 -0 -0 -0 -0 -92 -46 -101 -1 -28 -60 -62 -58 -117
-0 -0 -0 -0 -0 -0 -0 -0 -0 -0 -0 -0 -0 -0 -0 -0 -0 -0 -0 -0 -0 -0 -0 -0 -0 -0 -0 -0 -0 -0 -0 -0 -0 -0 -0 -0 -0 -134 -158 -111 -3 -26 -36 -43
-0 -0 -0 -0 -0 -0 -0 -0 -0 -0 -0 -0 -0 -0 -0 -0 -0 -0 -0 -0 -0 -0 -0 -0 -0 -0 -0 -0 -0 -0 -0 -0 -0 -0 -0 -0 -0 -85 -99 -158 -183 -3 -5 -24
-0 -0 -0 -0 -0 -0 -0 -0 -0 -0 -0 -0 -0 -0 -0 -0 -0 -0 -0 -0 -0 -0 -0 -1 -1 -0 -0 -0 -0 -0 -0 -0 -0 -0 -0 -0 -0 -0 -121 -180 -149 -130 -34 -1
-0 -0 -0 -0 -0 -0 -0 -0 -0 -0 -0 -0 -0 -0 -0 -0 -0 -0 -0 -0 -0 -0 -0 -1 -1 -0 -0 -0 -0 -0 -0 -0 -0 -0 -0 -0 -0 -0 -0 -0 -168 -98 -64 -34
-0 -0 -0 -0 -0 -0 -0 -0 -0 -0 -0 -0 -0 -0 -0 -1 -0 -0 -0 -0 -0 -0 -0 -0 -1 -1 -0 -1 -0 -0 -0 -0 -0 -0 -0 -0 -0 -0 -0 -0 -0 -84 -53 -38
-0 -0 -0 -0 -0 -0 -0 -0 -0 -0 -0 -0 -0 -0 -0 -0 -0 -0 -0 -9 -0 -0 -0 -0 -0 -0 -0 -1 -1 -1 -0 -0 -0 -0 -0 -0 -0 -0 -0 -0 -0 -0 -0 -264
Wind_Speed
15 18 19 16 16 15 17 19 17 17 16 18 20 20 21 11 3 3 7 10 14 16 23 24 32 20 14 21 33 32 32 32 29 28 28 27 26 23 21 20 20 19 20 19
17 24 19 17 19 20 20 20 20 20 16 19 21 22 20 17 27 3 11 10 15 15 21 26 31 25 18 22 34 35 25 30 34 31 29 24 25 23 20 20 21 19 18 19
22 20 17 18 20 20 20 21 21 21 22 19 20 21 18 19 18 2 13 16 18 19 20 24 27 30 27 27 28 37 36 26 27 31 27 20 20 19 20 20 22 20 17 13
23 18 18 19 20 20 23 20 20 22 22 23 19 21 19 19 21 16 5 6 12 13 17 21 25 31 30 27 36 38 36 36 29 31 28 30 29 26 23 21 22 21 17 13
20 20 19 22 20 19 21 15 20 21 22 23 22 21 18 19 20 24 24 20 18 11 15 22 26 29 29 31 28 38 38 37 35 27 31 31 30 27 22 21 22 22 18 19
18 18 18 22 19 17 15 16 17 18 22 26 22 22 18 17 21 23 28 28 7 12 15 19 24 25 27 26 14 33 36 40 37 29 25 32 32 28 24 24 24 23 20 19
18 18 19 18 19 18 18 19 23 26 28 27 21 22 16 17 18 21 26 32 10 14 13 13 19 30 26 25 15 24 30 39 38 18 30 32 33 32 29 27 27 24 21 20
22 25 21 20 21 21 21 23 25 29 30 27 20 22 17 15 16 18 19 22 18 15 14 14 12 24 28 23 16 16 28 33 33 10 29 33 34 33 32 30 28 27 25 23
24 22 17 16 20 21 22 27 22 20 22 27 24 20 18 19 18 18 17 16 21 14 9 11 9 16 22 20 15 19 33 32 26 41 24 37 36 35 34 31 31 30 27 25
18 22 19 19 19 16 21 18 26 25 28 28 25 24 23 22 22 20 18 18 18 18 12 13 10 19 11 15 24 26 32 37 30 25 37 34 37 37 36 33 33 31 29 27
15 19 20 18 20 23 21 23 22 23 24 28 27 25 21 20 19 18 17 17 15 12 17 18 22 23 20 20 22 26 31 35 35 32 36 33 31 38 37 36 35 34 32 27
16 15 19 18 16 17 16 21 23 30 30 25 24 24 17 16 15 15 15 15 14 12 11 12 17 20 20 20 26 26 29 33 34 35 32 36 30 33 38 37 37 37 35 30
16 17 20 22 20 18 20 19 21 22 24 30 32 26 14 13 14 14 14 14 14 13 13 13 12 14 15 18 21 25 28 31 32 31 33 35 37 35 40 39 37 37 38 37
14 15 20 24 22 19 21 20 20 24 30 27 27 22 19 16 14 14 14 14 14 14 14 15 15 16 18 18 19 20 26 29 32 31 31 32 34 35 38 39 37 37 37 39
17 19 17 16 17 19 22 23 23 23 23 29 23 22 20 18 16 16 15 15 15 17 17 18 18 19 20 20 21 22 22 25 31 35 36 38 34 31 32 34 36 37 37 37
19 21 20 23 22 24 27 26 25 24 24 24 23 24 21 19 18 18 19 19 18 19 20 21 22 22 22 23 23 23 24 26 28 33 39 38 36 35 34 33 31 34 36 36
16 14 17 22 21 23 29 26 25 23 22 24 28 24 23 25 25 26 26 23 22 23 24 24 24 26 26 27 27 27 28 28 28 32 37 38 36 35 34 34 33 33 34 35
13 14 16 18 18 28 20 17 20 22 22 23 22 24 25 28 30 32 27 25 27 28 29 29 29 29 29 30 29 30 29 29 29 28 30 36 38 39 37 34 33 32 32 32
15 14 16 20 22 22 23 20 20 23 25 23 26 28 28 31 32 28 22 27 32 34 34 34 33 33 33 33 32 32 31 30 27 26 26 30 33 37 38 37 34 33 32 33
14 14 16 16 22 26 20 17 18 19 31 23 24 28 31 32 37 33 32 39 41 40 40 40 39 37 36 35 34 34 35 33 31 31 30 29 30 33 35 36 34 31 32 33
14 16 17 18 22 22 16 16 16 27 26 21 24 27 30 34 35 41 43 44 43 44 45 44 44 42 40 38 37 38 37 36 34 33 32 34 32 30 32 33 34 34 32 33
16 15 16 18 20 24 9 14 21 19 20 23 25 28 31 33 37 41 43 44 44 47 47 45 47 47 44 42 41 41 41 39 37 37 34 32 32 32 29 31 33 35 33 33
17 15 16 14 17 13 7 14 16 18 20 21 24 27 30 33 37 39 41 43 45 46 46 47 49 49 49 46 44 45 44 41 42 40 38 36 33 35 33 31 31 34 35 34
16 13 16 16 13 12 13 16 16 16 18 20 23 26 29 32 36 39 40 42 44 45 47 48 50 52 53 51 50 49 47 45 44 46 44 41 36 36 35 33 32 32 36 36
15 8 15 21 17 15 14 10 13 13 15 19 23 27 30 32 35 37 39 41 43 44 44 46 49 52 54 53 54 52 51 49 50 48 47 44 41 40 38 36 35 34 33 36
13 16 15 20 13 14 14 10 9 12 14 18 23 27 28 30 33 35 37 39 41 43 43 45 46 49 52 54 56 56 53 52 52 52 49 46 43 43 42 40 40 38 39 39
Wind_Direction
250 247 244 246 250 262 258 254 258 262 268 270 265 265 259 286 322 276 132 148 152 154 154 156 167 148 136 147 169 165 164 200 210 209 163 184 200 208 213 218 208 200 183 187
249 247 250 249 252 255 258 255 256 263 268 267 265 263 268 264 199 250 137 141 151 155 157 162 167 158 149 150 172 185 149 211 192 198 186 221 211 217 225 218 200 214 211 195
247 260 246 243 249 252 255 254 255 259 262 273 270 261 269 262 261 252 146 150 151 158 163 165 166 168 163 161 161 185 189 168 157 205 212 238 238 239 232 224 200 208 228 269
255 258 237 240 246 250 252 258 259 258 259 253 268 259 263 265 257 261 250 165 157 159 164 167 167 171 171 166 182 200 206 199 168 179 222 214 209 214 222 228 208 212 240 265
253 243 234 239 246 249 256 266 259 257 257 259 257 258 268 271 261 256 253 259 167 168 168 168 170 172 171 174 176 213 214 208 197 166 192 208 210 220 236 234 223 214 238 226
255 251 245 245 250 253 253 259 264 261 255 252 253 254 266 274 268 266 250 253 240 171 167 170 172 172 172 171 183 228 225 206 208 177 168 198 207 223 236 229 223 221 230 233
245 248 250 248 245 250 246 244 249 248 246 248 253 253 264 276 282 277 266 246 195 173 172 173 173 176 175 174 179 242 236 219 222 169 181 190 206 214 224 228 223 223 239 237
238 239 248 255 249 248 242 241 249 246 244 244 252 251 255 283 290 292 293 264 265 174 180 178 183 173 177 177 184 238 241 236 237 215 182 194 203 217 218 224 227 223 229 231
240 247 255 260 254 249 247 243 254 259 257 245 248 254 259 283 292 300 302 292 264 270 202 192 191 176 174 179 211 238 238 242 247 217 250 220 220 215 225 233 231 227 232 238
252 242 257 256 257 263 253 250 243 252 245 243 248 249 257 274 281 291 299 301 290 267 261 251 234 249 226 238 243 244 243 236 246 248 236 241 234 226 226 233 231 230 233 236
259 252 252 255 256 252 249 248 252 251 256 248 245 250 268 275 284 287 297 306 315 295 266 260 254 252 251 250 247 246 245 243 243 247 243 247 249 230 231 230 228 229 233 246
271 259 249 249 263 267 264 254 253 247 247 255 256 254 282 281 290 296 300 308 315 319 304 291 269 261 259 259 253 252 250 247 247 247 250 246 252 249 234 234 228 227 229 244
275 263 247 251 259 265 260 264 260 258 257 251 250 254 283 292 296 302 302 303 311 315 315 305 301 286 279 269 264 258 255 253 253 253 251 249 247 249 239 238 241 237 232 235
290 271 263 255 259 261 259 265 268 260 253 252 257 253 265 278 290 300 303 307 307 308 312 304 300 294 286 286 278 276 264 258 254 255 255 254 252 251 249 247 248 247 245 240
282 269 272 275 273 271 266 266 267 263 259 256 252 255 264 273 283 288 297 301 306 305 303 304 300 293 295 289 288 279 278 273 261 254 252 251 255 257 258 257 256 254 252 250
283 272 271 271 274 272 266 267 267 266 263 261 259 259 270 277 280 286 291 294 298 301 301 300 296 296 292 293 291 287 283 279 273 261 252 254 256 257 258 259 260 260 258 258
281 278 273 269 277 274 265 265 265 266 268 265 258 265 273 271 276 279 282 286 290 296 298 297 296 292 293 293 294 287 285 283 277 268 257 255 258 259 261 260 260 260 260 261
286 285 284 278 277 265 277 284 276 268 269 271 271 273 277 277 278 279 281 281 285 290 293 293 294 292 292 292 293 292 292 290 286 279 267 258 259 260 261 261 260 261 262 262
294 292 289 280 274 281 275 278 275 270 270 278 273 275 279 282 280 277 283 288 287 286 287 287 289 289 289 287 292 290 288 291 292 288 282 269 269 264 260 259 261 262 263 263
306 301 293 288 279 273 284 284 287 286 270 281 284 281 283 284 271 274 281 286 285 285 284 283 284 285 286 289 290 286 282 285 285 284 281 284 280 272 265 262 263 265 265 265
299 292 286 288 288 288 290 292 294 275 277 289 290 289 288 282 281 282 285 284 285 284 283 281 279 279 281 284 286 283 282 281 286 287 287 279 286 284 273 268 266 265 267 266
292 294 289 291 289 284 307 300 286 291 296 295 294 293 292 292 291 289 287 287 287 284 283 281 277 275 278 280 280 279 279 283 285 284 284 288 287 283 281 273 269 266 266 267
298 299 299 301 299 322 341 318 308 303 302 304 302 301 297 294 295 296 294 291 289 287 285 282 279 275 274 275 277 275 278 281 280 280 278 282 284 278 276 277 274 268 267 265
313 319 309 311 318 314 315 314 315 315 312 312 311 309 305 303 303 300 298 296 293 292 287 285 280 275 272 272 272 273 276 278 276 272 272 275 279 277 273 275 275 273 266 264
321 340 312 298 311 321 316 327 326 328 328 322 318 314 310 308 306 306 303 303 300 297 293 289 282 278 274 272 270 271 272 275 271 269 268 267 271 268 270 272 272 272 272 267
310 306 306 302 318 320 330 346 338 334 334 329 323 321 318 315 314 313 308 304 305 302 298 292 288 283 278 275 271 269 269 269 267 266 265 264 267 266 269 269 269 271 270 269